Weather observations for the past three days for
Bartow Municipal
Metric (Imperial)
Date Time (edt) Wind (kph) Vis. (km) Weather Sky Cond. Temperature (ºC) Relative Humidity Wind Chill (°C) Heat Index (°C) Pressure Precipitation (cm)
Air Dwpt 6 hour altimeter (cm) sea level (mb) 1 hr 3 hr 6 hr
Max. Min.
07 16:55 NW 20 16.09 Fair CLR 35 5 15% 33 76.05 0.0
07 16:35 NW 22 16.09 Fair CLR 35 7 18% 33 76.05 0.0
07 16:15 W 15 G 31 16.09 Fair CLR 35 13 26% 34 76.05 0.0
07 15:55 SW 17 G 33 16.09 Fair CLR 35 13 26% 34 76.05 0.0
07 15:35 SW 20 16.09 Fair CLR 35 14 28% 34 76.07 0.0
07 15:15 SW 19 G 30 16.09 NULL NULL 34 14 30% 33 76.1 0.0
07 14:55 SW 13 G 31 0.00 NULL NULL 34 14 30% 33 76.12 0.0
07 14:35 SW 19 G 30 16.09 Fair CLR 34 15 32% 34 76.15 0.0
07 14:15 S 11 G 28 16.09 Fair CLR 33 18 41% 34 76.17 0.0
07 13:55 SW 13 G 30 16.09 Fair CLR 33 18 41% 34 76.2 0.0
07 13:35 SW 24 16.09 Fair CLR 33 19 44% 35 76.2 0.0
07 13:15 SW 24 16.09 Fair CLR 32 18 43% 33 76.23 0.0
07 12:55 SW 15 G 43 16.09 Fair CLR 32 19 46% 33 76.23 0.0
07 12:35 SW 15 G 26 16.09 Fair CLR 32 19 46% 33 76.23 0.0
07 12:15 SW 15 G 30 16.09 Fair CLR 31 18 46% 32 76.25 0.0
07 11:55 W 19 16.09 Fair CLR 31 18 46% 32 76.25 0.0
07 11:35 S 13 G 24 16.09 Fair CLR 31 19 49% 32 76.28 0.0
07 11:15 SW 13 16.09 Fair CLR 30 18 49% 31 76.28 0.0
07 10:55 S 19 16.09 Fair CLR 30 18 49% 31 76.28 0.0
07 10:35 S 20 16.09 Fair CLR 29 18 51% 30 76.28 0.0
07 10:15 SW 17 16.09 Fair CLR 29 19 55% 30 76.28 0.0
07 09:55 S 17 16.09 Fair CLR 28 19 58% 29 76.28 0.0
07 09:35 S 15 16.09 Fair CLR 27 19 62% 28 76.28 0.0
07 09:15 S 15 16.09 Fair CLR 26 19 65% 27 76.28 0.0
07 08:55 S 15 16.09 Fair CLR 25 19 69% 26 76.25 0.0
07 08:35 S 9 16.09 Fair CLR 24 20 78% 24 76.25 0.0
07 08:15 SE 9 16.09 Fair CLR 22 19 83% 76.25 0.0
07 07:55 Calm 16.09 Fair CLR 21 20 94% 76.25 0.0
07 07:35 Calm 16.09 Fair CLR 19 18 94% 76.25 0.0
07 07:15 Calm 16.09 Fair CLR 19 18 94% 76.23 0.0
07 06:55 Calm 16.09 Fair CLR 19 18 94% 76.23 0.0
07 06:35 Calm 16.09 Fair CLR 19 18 94% 76.23 0.0
07 06:15 Calm 16.09 Fair CLR 19 18 94% 76.2 0.0
07 05:55 Calm 16.09 Fair CLR 19 18 94% 76.17 0.0
07 05:35 Calm 16.09 Fair CLR 19 18 94% 76.17 0.0
07 05:15 Calm 16.09 Fair CLR 20 18 88% 76.17 0.0
07 04:55 Calm 16.09 Fair CLR 21 19 88% 76.17 0.0
07 04:35 Calm 16.09 Fair CLR 20 19 94% 76.15 0.0
07 04:15 Calm 16.09 Fair CLR 20 19 94% 76.15 0.0
07 03:55 Calm 16.09 Fair CLR 20 19 94% 76.15 0.0
07 03:35 Calm 16.09 A Few Clouds FEW028 22 19 83% 76.17 0.0
07 03:15 Calm 16.09 Fair CLR 21 19 88% 76.17 0.0
07 02:55 Calm 16.09 Fair CLR 21 19 88% 76.17 0.0
07 02:35 Calm 16.09 Fair CLR 22 19 83% 76.17 0.0
07 02:15 Calm 16.09 Fair CLR 22 19 83% 76.23 0.0
07 01:55 S 9 16.09 Partly Cloudy SCT038 22 19 83% 76.23 0.0
07 01:35 S 6 16.09 Mostly Cloudy BKN037 23 19 78% 76.23 0.0
07 01:15 S 6 16.09 Mostly Cloudy BKN038 23 19 78% 76.25 0.0
07 00:55 Calm 16.09 Mostly Cloudy FEW028 BKN036 23 20 83% 76.28 0.0
07 00:35 Calm 16.09 Overcast OVC032 24 19 74% 25 76.28 0.0
07 00:15 Calm 16.09 Overcast OVC030 25 20 74% 26 76.28 0.0
06 23:55 Calm 16.09 Overcast OVC029 25 20 74% 26 76.28 0.0
06 23:35 Calm 16.09 Overcast OVC028 25 20 74% 26 76.25 0.0
06 23:15 SE 7 16.09 Overcast OVC027 26 20 70% 27 76.25 0.0
06 22:55 SE 7 16.09 Mostly Cloudy SCT028 BKN037 BKN043 25 19 69% 26 76.25 0.0
06 22:35 Calm 16.09 Overcast BKN031 BKN038 OVC044 26 20 70% 27 76.25 0.0
06 22:15 SW 9 16.09 Overcast BKN034 OVC044 26 19 65% 27 76.25 0.0
06 21:55 SW 11 16.09 Partly Cloudy SCT034 27 19 62% 28 76.25 0.0
06 21:35 W 11 16.09 Fair CLR 28 19 58% 29 76.25 0.0
06 21:15 Vrbl 7 16.09 Fair CLR 28 20 62% 30 76.23 0.0
06 20:55 W 17 16.09 Fair CLR 29 20 58% 31 76.17 0.0
06 20:35 W 17 16.09 Fair CLR 30 20 55% 32 76.17 0.0
06 20:15 Calm 16.09 Fair CLR 29 17 48% 29 76.15 0.0
06 19:55 SE 7 16.09 Fair CLR 30 16 43% 30 76.15 0.0
06 19:35 SE 9 16.09 Fair CLR 32 15 36% 32 76.12 0.0
06 19:15 E 11 16.09 Fair CLR 33 15 34% 33 76.12 0.0
06 18:55 SE 9 16.09 Fair CLR 34 14 30% 33 76.15 0.0
06 18:35 SE 9 16.09 Fair CLR 34 14 30% 33 76.15 0.0
06 18:15 SE 7 16.09 Fair CLR 34 14 30% 33 76.15 0.0
06 17:55 Calm 16.09 Fair CLR 34 13 28% 33 76.15 0.0
06 17:35 Vrbl 9 16.09 Fair CLR 35 13 26% 34 76.15 0.0
06 17:15 SE 13 16.09 Fair CLR 35 14 28% 34 76.15 0.0
06 16:55 Calm 16.09 Fair CLR 34 14 30% 33 76.15 0.0
06 16:35 Calm 16.09 Fair CLR 34 13 28% 33 76.15 0.0
06 16:15 Calm 16.09 Fair CLR 34 14 30% 33 76.15 0.0
06 15:55 Vrbl 7 16.09 Fair CLR 34 14 30% 33 76.17 0.0
06 15:35 Vrbl 11 G 24 16.09 Fair CLR 34 14 30% 33 76.17 0.0
06 15:15 S 15 G 24 16.09 Fair CLR 34 14 30% 33 76.2 0.0
06 14:55 Vrbl 9 G 22 16.09 Fair CLR 34 14 30% 33 76.23 0.0
06 14:35 E 17 16.09 Fair CLR 33 15 34% 33 76.25 0.0
06 14:15 SE 11 G 24 16.09 Fair CLR 33 15 34% 33 76.25 0.0
06 13:55 Vrbl 7 G 26 16.09 Fair CLR 33 15 34% 33 76.28 0.0
06 13:35 SE 11 G 22 16.09 Fair CLR 32 16 38% 32 76.3 0.0
06 13:15 SE 11 16.09 Fair CLR 32 17 41% 32 76.3 0.0
06 12:55 Vrbl 11 G 20 16.09 Fair CLR 31 17 43% 31 76.33 0.0
06 12:35 SE 13 G 22 16.09 Fair CLR 31 17 43% 31 76.33 0.0
06 12:15 SE 19 16.09 Fair CLR 31 17 43% 31 76.33 0.0
06 11:55 SE 13 G 26 16.09 Fair CLR 31 17 43% 31 76.33 0.0
06 11:35 SE 19 G 33 14.48 Fair CLR 30 17 46% 30 76.33 0.0
06 11:15 SE 17 16.09 Fair CLR 29 19 55% 30 76.33 0.0
06 10:55 SE 19 16.09 Fair CLR 29 19 55% 30 76.33 0.0
06 10:35 SE 13 16.09 Fair CLR 28 20 62% 30 76.35 0.0
06 10:15 SE 17 16.09 Fair CLR 28 21 66% 30 76.35 0.0
06 09:55 SE 15 16.09 Fair CLR 27 21 70% 29 76.35 0.0
06 09:35 SE 15 16.09 Fair CLR 26 21 74% 27 76.35 0.0
06 09:15 SE 13 16.09 Fair CLR 25 21 79% 26 76.33 0.0
06 08:55 SE 15 16.09 Fair CLR 23 21 89% 76.3 0.0
06 08:35 SE 9 16.09 Fair CLR 22 20 88% 76.3 0.0
06 08:15 E 7 14.48 Fair CLR 21 20 94% 76.3 0.0
06 07:55 Calm 16.09 Fair CLR 19 19 100% 76.28 0.0
06 07:35 Calm 16.09 Fair CLR 18 17 94% 76.28 0.0
06 07:15 Calm 16.09 Fair CLR 17 17 100% 76.28 0.0
06 06:55 Calm 16.09 Fair CLR 17 16 94% 76.25 0.0
06 06:35 E 6 16.09 Fair CLR 17 16 94% 76.23 0.0
06 06:15 Calm 16.09 Fair CLR 17 16 94% 76.25 0.0
06 05:55 Calm 16.09 Fair CLR 17 16 94% 76.23 0.0
06 05:35 Calm 16.09 Fair CLR 18 17 94% 76.23 0.0
06 05:15 Calm 16.09 Fair CLR 17 16 94% 76.2 0.0
06 04:55 Calm 16.09 Fair CLR 17 15 88% 76.23 0.0
06 04:35 Calm 16.09 Fair CLR 17 16 94% 76.23 0.0
06 04:15 Calm 16.09 Fair CLR 17 16 94% 76.23 0.0
06 03:55 Calm 16.09 Fair CLR 17 16 94% 76.23 0.0
06 03:35 Calm 16.09 Fair CLR 17 16 94% 76.23 0.0
06 03:15 Calm 16.09 Fair CLR 18 16 88% 76.25 0.0
06 02:55 Calm 16.09 Fair CLR 18 16 88% 76.23 0.0
06 02:35 Calm 16.09 Fair CLR 18 16 88% 76.25 0.0
06 02:15 Calm 16.09 Fair CLR 18 16 88% 76.25 0.0
06 01:55 Calm 16.09 Fair CLR 18 16 88% 76.28 0.0
06 01:35 Calm 16.09 Fair CLR 18 16 88% 76.28 0.0
06 01:15 Calm 16.09 Fair CLR 19 16 83% 76.3 0.0
06 00:55 Calm 16.09 Fair CLR 20 16 78% 76.3 0.0
06 00:35 E 6 16.09 Fair CLR 20 16 78% 76.3 0.0
06 00:15 E 7 16.09 Fair CLR 19 16 83% 76.3 0.0
05 23:55 Calm 16.09 Fair CLR 19 16 83% 76.3 0.0
05 23:35 Calm 16.09 Fair CLR 20 17 83% 76.3 0.0
05 23:15 Calm 16.09 Fair CLR 20 16 78% 76.3 0.0
05 22:55 Calm 16.09 Fair CLR 21 16 73% 76.3 0.0
05 22:35 E 6 16.09 Fair CLR 22 16 69% 76.3 0.0
05 22:15 E 7 16.09 Fair CLR 23 16 65% 76.28 0.0
05 21:55 E 9 16.09 Fair CLR 23 16 65% 76.25 0.0
05 21:35 E 11 16.09 Fair CLR 23 15 61% 76.23 0.0
05 21:15 E 13 16.09 Fair CLR 24 15 57% 25 76.2 0.0
05 20:55 E 13 16.09 Fair CLR 24 15 57% 25 76.2 0.0
05 20:35 E 15 16.09 Fair CLR 25 15 54% 26 76.17 0.0
05 20:15 E 20 16.09 Fair CLR 25 15 54% 26 76.15 0.0
05 19:55 E 20 16.09 Fair CLR 26 16 54% 27 76.12 0.0
05 19:35 E 22 G 35 16.09 Fair CLR 27 16 51% 27 76.1 0.0
05 19:15 E 17 16.09 Fair CLR 28 16 48% 28 76.12 0.0
05 18:55 E 15 16.09 Fair CLR 29 15 43% 29 76.12 0.0
05 18:35 E 15 16.09 Fair CLR 30 15 40% 30 76.12 0.0
05 18:15 E 15 16.09 Fair CLR 30 15 40% 30 76.1 0.0
05 17:55 E 15 16.09 Fair CLR 30 15 40% 30 76.1 0.0
05 17:35 NE 11 16.09 Fair CLR 30 15 40% 30 76.1 0.0
05 17:15 E 11 16.09 A Few Clouds FEW060 FEW085 30 15 40% 30 76.1 0.0
05 16:55 E 13 16.09 Mostly Cloudy BKN060 30 15 40% 30 76.1 0.0
05 16:35 Calm 16.09 Fair CLR 31 14 35% 30 76.12 0.0
05 16:15 E 9 16.09 Fair CLR 32 14 33% 31 76.12 0.0
05 15:55 E 15 16.09 Fair CLR 31 14 35% 30 76.12 0.0
05 15:35 E 13 16.09 Fair CLR 31 15 38% 31 76.12 0.0
05 15:15 NE 11 G 24 16.09 Fair CLR 30 14 38% 29 76.15 0.0
05 14:55 Vrbl 7 16.09 Fair CLR 31 14 35% 30 76.17 0.0
05 14:35 Vrbl 11 G 24 16.09 A Few Clouds FEW055 31 14 35% 30 76.2 0.0
05 14:15 E 17 16.09 A Few Clouds FEW055 FEW065 31 15 38% 31 76.2 0.0
05 13:55 N 9 G 22 16.09 Mostly Cloudy BKN055 BKN065 BKN080 29 15 43% 29 76.23 0.0
05 13:35 E 11 16.09 Partly Cloudy FEW060 SCT080 29 15 43% 29 76.25 0.0
05 13:15 Vrbl 9 16.09 A Few Clouds FEW050 30 15 40% 30 76.25 0.0
05 12:55 E 15 16.09 Partly Cloudy SCT050 SCT060 29 15 43% 29 76.28 0.0
05 12:35 E 19 16.09 A Few Clouds FEW050 FEW060 29 15 43% 29 76.25 0.0
05 12:15 SE 15 16.09 Mostly Cloudy BKN050 BKN055 28 15 45% 28 76.28 0.0
05 11:55 E 17 16.09 Mostly Cloudy BKN050 28 15 45% 28 76.28 0.0
05 11:35 E 17 16.09 Partly Cloudy SCT050 29 15 43% 29 76.28 0.0
05 11:15 NE 22 G 31 16.09 Mostly Cloudy BKN055 BKN060 28 15 45% 28 76.28 0.0
05 10:55 E 20 16.09 A Few Clouds FEW060 28 16 48% 28 76.28 0.0
05 10:35 E 15 G 28 16.09 Fair CLR 27 16 51% 27 76.25 0.0
05 10:15 E 19 16.09 Fair CLR 26 17 58% 27 76.25 0.0
05 09:55 E 22 16.09 Fair CLR 25 17 61% 26 76.25 0.0
05 09:35 E 20 16.09 Fair CLR 25 18 65% 26 76.25 0.0
05 09:15 E 20 16.09 Fair CLR 24 18 69% 25 76.25 0.0
05 08:55 E 15 16.09 A Few Clouds FEW065 23 18 74% 76.25 0.0
05 08:35 E 11 16.09 Mostly Cloudy BKN060 22 18 78% 76.25 0.0
05 08:15 E 9 16.09 Overcast OVC060 21 18 83% 76.25 0.0
05 07:55 E 13 16.09 Mostly Cloudy BKN060 21 18 83% 76.23 0.0
05 07:35 E 7 16.09 Mostly Cloudy BKN065 20 18 88% 76.2 0.0
05 07:15 E 7 16.09 Mostly Cloudy BKN060 19 18 94% 76.17 0.0
05 06:55 NE 9 16.09 Mostly Cloudy BKN060 19 18 94% 76.17 0.0
05 06:35 NE 9 16.09 A Few Clouds FEW060 19 18 94% 76.15 0.0
05 06:15 NE 9 16.09 Fair CLR 18 18 100% 76.15 0.0
05 05:55 NE 9 16.09 Fair CLR 18 18 100% 76.12 0.0
05 05:35 NE 6 16.09 Fair CLR 18 17 94% 76.12 0.0
05 05:15 NE 6 16.09 Fair CLR 18 17 94% 76.12 0.0
05 04:55 Calm 16.09 Fair CLR 18 17 94% 76.12 0.0
05 04:35 NE 9 16.09 Fair CLR 19 17 88% 76.12 0.0
05 04:15 NE 11 16.09 A Few Clouds FEW070 18 17 94% 76.1 0.0
05 03:55 NE 7 16.09 Fair CLR 19 17 88% 76.12 0.0
05 03:35 E 7 16.09 Fair CLR 19 17 88% 76.12 0.0
05 03:15 E 7 16.09 Fair CLR 19 17 88% 76.12 0.0
05 02:55 E 11 16.09 Fair CLR 19 17 88% 76.12 0.0
05 02:35 E 9 16.09 Fair CLR 19 17 88% 76.17 0.0
05 02:15 E 9 16.09 Fair CLR 20 17 83% 76.17 0.0
05 01:55 NE 11 16.09 Fair CLR 20 17 83% 76.2 0.0
05 01:35 NE 11 16.09 A Few Clouds FEW028 FEW043 20 17 83% 76.2 0.0
05 01:15 NE 11 16.09 Mostly Cloudy BKN029 20 17 83% 76.23 0.0
05 00:55 NE 11 16.09 Mostly Cloudy BKN029 20 17 83% 76.23 0.0
05 00:35 NE 11 16.09 Mostly Cloudy BKN027 BKN044 20 17 83% 76.25 0.0
05 00:15 NE 9 16.09 Overcast OVC027 20 17 83% 76.25 0.0
04 23:55 NE 7 16.09 Partly Cloudy SCT029 20 17 83% 76.25 0.0
04 23:35 E 11 16.09 Fair CLR 21 16 73% 76.25 0.0
04 23:15 E 11 16.09 Fair CLR 21 16 73% 76.25 0.0
04 22:55 E 11 16.09 Fair CLR 21 16 73% 76.25 0.0
04 22:35 E 11 16.09 Fair CLR 21 16 73% 76.25 0.0
04 22:15 E 15 16.09 Fair CLR 22 16 69% 76.25 0.0
04 21:55 E 15 16.09 Fair CLR 22 16 69% 76.23 0.0
04 21:35 E 15 16.09 Fair CLR 22 15 65% 76.23 0.0
04 21:15 E 15 G 24 16.09 Fair CLR 22 15 65% 76.2 0.0
04 20:55 E 13 16.09 Fair CLR 23 15 61% 76.2 0.0
04 20:35 E 11 16.09 Fair CLR 23 15 61% 76.2 0.0
04 20:15 E 17 16.09 Fair CLR 23 15 61% 76.17 0.0
04 19:55 E 19 16.09 Fair CLR 24 15 57% 25 76.15 0.0
04 19:35 E 20 16.09 Fair CLR 24 15 57% 25 76.12 0.0
04 19:15 E 15 G 30 16.09 Fair CLR 25 16 57% 26 76.12 0.0
04 18:55 E 26 16.09 A Few Clouds FEW044 FEW050 FEW065 25 16 57% 26 76.12 0.0
04 18:35 E 19 G 31 16.09 Partly Cloudy FEW044 SCT050 SCT055 26 16 54% 27 76.12 0.0
04 18:15 E 22 16.09 A Few Clouds FEW044 FEW055 26 15 51% 27 76.12 0.0
04 17:55 E 26 16.09 Partly Cloudy FEW044 SCT055 27 15 48% 27 76.1 0.0
04 17:35 E 22 16.09 Fair CLR 27 15 48% 27 76.1 0.0
04 17:15 NE 24 G 37 16.09 Partly Cloudy SCT055 28 15 45% 28 76.1 0.0
Date Time (edt) Wind (kph) Vis. (km) Weather Sky Cond. Air Dwpt Max. Min. Relative Humidity Wind Chill (°C) Heat Index (°C) altimeter (cm) sea level (mb) 1 hr 3 hr 6 hr
6 hour
Temperature (ºC) Pressure Precipitation (cm)